[[{"header":{"parameterUnit":"m.s-1","parameterCategory":1,"la1":30.2991,"la2":30.254,"lo1":-89.0895,"lo2":-89.0444,"dy":0.0017,"dx":0.0017,"nx":28,"ny":28,"refTime":"2025-08-05T21:00:00:Z","depth":0,"parameterNumber":2,"parameterNumberName":"U-component_of_WINDS"},"data":[0,0,0,0,0,0,0,0,0,0,0,0,0,0,0,0,0,0,0,0,0,0,0,0,0,0,0,0,0,0,0,0,0,0,0,0,0,0,0,0,0,0,0,0,0,0,0,0,0,0,0,0,0,0,0,0,0,0,0.7387,0.7388,0,0.753,0.7532,0.7533,0.7574,0.7573,0.7572,0.7571,0.772,0.7725,0.773,0,0,0,0,0,0,0,0,0,0,0,0,0,0.7148,0.7152,0.7387,0.7388,0.739,0.753,0.7532,0.7534,0.7574,0.7573,0.7572,0.7571,0.7719,0.7724,0.773,0,0,0,0,0,0,0,0,0,0,0,0,0,0.7267,0.7153,0.7386,0.7427,0.7432,0.7529,0.7532,0.7534,0.7574,0.7573,0.7572,0.7571,0.7717,0.7724,0.7731,0.7799,0,0,0.7752,0.7756,0,0,0,0,0,0,0,0,0.7261,0.7276,0.7419,0.7424,0.743,0.7533,0.7502,0.7623,0.7574,0.752,0.7571,0.757,0.7659,0.7671,0.77,0.7806,0.7812,0.7753,0.7757,0.776,0.7762,0,0,0,0,0,0,0,0.7252,0.727,0.7443,0.7421,0.7428,0.7438,0.7454,0.7525,0.7595,0.7525,0.7528,0.7544,0.7662,0.7694,0.7704,0.7814,0.7753,0.7759,0.7764,0.7766,0.798,0.7982,0,0,0,0,0,0,0.7237,0.7263,0.7439,0.7448,0.7341,0.7443,0.7461,0.7501,0.7594,0.7607,0.7545,0.7546,0.7682,0.7696,0.771,0.7794,0.776,0.7767,0.7771,0.7979,0.7981,0.7982,0,0,0,0,0,0,0.7231,0.7252,0.7433,0.7356,0.738,0.7449,0.7494,0.7505,0.7536,0.761,0.7622,0.7565,0.7682,0.77,0.7776,0.78,0.777,0.7777,0.7977,0.798,0.7982,0.7964,0,0,0,0,0,0,0.7224,0.725,0.7276,0.7357,0.7384,0.7497,0.7495,0.7508,0.7548,0.755,0.7631,0.7644,0.7682,0.7765,0.7783,0.7809,0.7782,0.7976,0.7978,0.7981,0.7963,0.7965,0.7968,0,0,0,0,0,0.7216,0.7267,0.7278,0.7299,0.7419,0.7498,0.7514,0.7556,0.755,0.7577,0.7624,0.7641,0.7794,0.7772,0.7793,0.7822,0.7974,0.7978,0.7981,0.7962,0.7965,0.7968,0,0,0,0,0,0,0.7189,0.7278,0.7291,0.7369,0.7426,0.7505,0.754,0.7559,0.7618,0.7618,0.7669,0.7687,0.7759,0.7798,0.7772,0.7891,0.7885,0.7892,0.7863,0.7867,0.7869,0.7858,0.7788,0,0,0,0,0,0.7192,0.7248,0.7323,0.7385,0.7413,0.7471,0.7508,0.7535,0.7596,0.762,0.7673,0.7731,0.7792,0.7832,0.7892,0.7968,0.7986,0.7998,0.8001,0.8002,0.8008,0.805,0.8056,0.7993,0.7993,0.7993,0,0,0.7199,0.7254,0.7287,0.7381,0.7428,0.7485,0.7491,0.7552,0.7595,0.763,0.7704,0.7744,0.7813,0.7889,0.7925,0.7924,0.8029,0.8006,0.8007,0.8012,0.8054,0.806,0.8065,0.7995,0.7995,0.7995,0,0,0.7241,0.7289,0.7345,0.7391,0.7462,0.75,0.7513,0.7589,0.7617,0.7692,0.7719,0.7771,0.7876,0.7923,0.7961,0.8018,0.8036,0.8036,0.8049,0.8089,0.8094,0.8099,0.8119,0.8125,0.8042,0.8042,0.8042,0,0.7241,0.7328,0.7372,0.7431,0.7471,0.7503,0.756,0.7603,0.769,0.7717,0.7714,0.7844,0.7893,0.798,0.7993,0.8023,0.804,0.8028,0.809,0.8095,0.81,0.8119,0.8127,0.8042,0.8042,0.8042,0.8042,0,0.7324,0.7384,0.7421,0.7503,0.7547,0.7605,0.7657,0.7696,0.7719,0.7758,0.7833,0.7892,0.7965,0.7987,0.8012,0.8077,0.8074,0.808,0.8074,0.8105,0.8124,0.8132,0.8041,0.8041,0.8041,0.8041,0,0,0.7355,0.7458,0.7471,0.7508,0.7587,0.7634,0.7693,0.7762,0.7795,0.7853,0.7903,0.799,0.7995,0.8038,0.8067,0.8102,0.8143,0.8104,0.8106,0.8109,0.8218,0.8212,0.822,0.8155,0.8156,0.8158,0.8212,0,0.7407,0.7512,0.7552,0.7638,0.7694,0.7724,0.7775,0.7829,0.7866,0.7919,0.796,0.802,0.8023,0.8049,0.8085,0.813,0.8165,0.8127,0.8202,0.8204,0.8183,0.8231,0.8226,0.8274,0.8219,0.8221,0.8222,0,0.7481,0.7539,0.763,0.7701,0.7726,0.7771,0.7837,0.7887,0.7948,0.7973,0.8019,0.8046,0.8108,0.8097,0.8183,0.8156,0.8189,0.8216,0.8219,0.8227,0.8215,0.824,0.8291,0.8298,0.8234,0.8233,0.8232,0,0.7493,0.7594,0.7661,0.7692,0.7776,0.7807,0.7844,0.7904,0.7942,0.8,0.8026,0.809,0.8125,0.8175,0.8218,0.8206,0.8299,0.8293,0.8321,0.832,0.834,0.8338,0.8396,0.8361,0.8361,0.8361,0.836,0,0.7547,0.7601,0.7667,0.7709,0.7771,0.7816,0.7875,0.7914,0.7967,0.8016,0.8047,0.8092,0.8147,0.8199,0.8233,0.8298,0.8314,0.8336,0.8344,0.8333,0.833,0.8355,0.8353,0.8363,0.8362,0.8362,0.8361,0,0.7571,0.7617,0.7693,0.7766,0.7785,0.7827,0.789,0.7931,0.7969,0.8031,0.8048,0.8107,0.817,0.8218,0.83,0.8323,0.8392,0.8401,0.8371,0.8375,0.84,0.8397,0.8477,0.8489,0.8446,0.8446,0.8446,0,0.7602,0.7644,0.7721,0.7756,0.7792,0.7848,0.7887,0.7933,0.7972,0.8044,0.8076,0.8141,0.8196,0.8295,0.8345,0.8408,0.8419,0.8442,0.8428,0.8415,0.8418,0.8415,0.8419,0.8444,0.8444,0.8444,0.8444,0,0.7651,0.7672,0.7727,0.779,0.7835,0.7887,0.794,0.7966,0.8021,0.8064,0.8128,0.817,0.8253,0.8317,0.8384,0.8422,0.8442,0.8448,0.8458,0.8447,0.8427,0.8437,0.8376,0.8446,0.8446,0.8446,0.8446,0.8446,0.768,0.7718,0.7778,0.7838,0.7882,0.793,0.7971,0.8014,0.8068,0.8138,0.8162,0.8228,0.8287,0.8379,0.8417,0.8469,0.847,0.8484,0.8488,0.849,0.8489,0.8419,0.8482,0.8482,0.8482,0.8482,0.8482,0,0.773,0.777,0.7824,0.7896,0.7943,0.7957,0.8015,0.8053,0.8111,0.8164,0.8216,0.8289,0.8351,0.8405,0.8469,0.85,0.8511,0.8516,0.8514,0.8522,0.8485,0.847,0.8506,0.8506,0.8506,0.8506,0.8506,0.8506,0.7762,0.7828,0.7855,0.7942,0.7982,0.8046,0.8078,0.8122,0.8164,0.8244,0.8295,0.833,0.8383,0.8451,0.8508,0.8522,0.8544,0.8546,0.8563,0.8528,0.8525,0.8522,0.8508,0.8551,0.8551,0.8595,0.8595,0.8596]},{"header":{"parameterUnit":"m.s-1","parameterCategory":1,"la1":30.2991,"la2":30.254,"lo1":-89.0895,"lo2":-89.0444,"dy":0.0017,"dx":0.0017,"nx":28,"ny":28,"refTime":"2025-08-05T21:00:00:Z","depth":0,"parameterNumber":3,"parameterNumberName":"V-component_of_WINDS"},"data":[0,0,0,0,0,0,0,0,0,0,0,0,0,0,0,0,0,0,0,0,0,0,0,0,0,0,0,0,0,0,0,0,0,0,0,0,0,0,0,0,0,0,0,0,0,0,0,0,0,0,0,0,0,0,0,0,0,0,3.9191,3.9191,0,3.9177,3.9176,3.9176,3.9174,3.9174,3.9174,3.9175,3.9157,3.9156,3.9156,0,0,0,0,0,0,0,0,0,0,0,0,0,3.9214,3.9213,3.9191,3.9191,3.919,3.9177,3.9176,3.9176,3.9174,3.9174,3.9174,3.9175,3.9157,3.9157,3.9156,0,0,0,0,0,0,0,0,0,0,0,0,0,3.9202,3.9213,3.9191,3.9188,3.9187,3.9177,3.9176,3.9176,3.9174,3.9174,3.9175,3.9175,3.9157,3.9157,3.9156,3.9146,0,0,3.9153,3.9153,0,0,0,0,0,0,0,0,3.9203,3.9201,3.9188,3.9188,3.9188,3.9177,3.9178,3.9166,3.9174,3.9179,3.9175,3.9175,3.9163,3.9162,3.9159,3.9145,3.9144,3.9153,3.9152,3.9152,3.9152,0,0,0,0,0,0,0,3.9203,3.9202,3.9185,3.9188,3.9188,3.9186,3.9185,3.9176,3.917,3.9179,3.9178,3.9177,3.9163,3.916,3.9158,3.9144,3.9153,3.9152,3.9152,3.9151,3.9122,3.9121,0,0,0,0,0,0,3.9205,3.9202,3.9186,3.9185,3.9196,3.9186,3.9184,3.918,3.917,3.9169,3.9177,3.9177,3.9161,3.9159,3.9158,3.9146,3.9152,3.9151,3.9151,3.9122,3.9122,3.9121,0,0,0,0,0,0,3.9206,3.9204,3.9186,3.9194,3.9191,3.9185,3.9181,3.918,3.9177,3.9169,3.9168,3.9174,3.9161,3.9159,3.9149,3.9145,3.9151,3.915,3.9122,3.9122,3.9122,3.9121,0,0,0,0,0,0,3.9206,3.9204,3.9201,3.9194,3.9191,3.9178,3.9181,3.918,3.9175,3.9175,3.9166,3.9165,3.9161,3.9151,3.9148,3.9144,3.9149,3.9123,3.9122,3.9122,3.9122,3.9121,3.912,0,0,0,0,0,3.9207,3.9201,3.9201,3.9199,3.9187,3.9178,3.9177,3.9173,3.9175,3.9171,3.9167,3.9165,3.9146,3.915,3.9147,3.9142,3.9123,3.9122,3.9122,3.9122,3.9121,3.912,0,0,0,0,0,0,3.9206,3.92,3.9199,3.9191,3.9185,3.9178,3.9173,3.9173,3.9166,3.9166,3.9161,3.9159,3.9149,3.9145,3.9149,3.9132,3.9134,3.9133,3.9135,3.9135,3.9134,3.9135,3.9148,0,0,0,0,0,3.9205,3.92,3.9194,3.9187,3.9184,3.9179,3.9175,3.9173,3.9167,3.9164,3.9159,3.9152,3.9144,3.9139,3.9132,3.9121,3.9119,3.9117,3.9116,3.9116,3.9114,3.9108,3.9107,3.912,3.912,3.912,0,0,3.9203,3.9198,3.9195,3.9186,3.9182,3.9175,3.9177,3.917,3.9165,3.9163,3.9154,3.9149,3.9141,3.9131,3.9126,3.9127,3.9111,3.9115,3.9115,3.9114,3.9107,3.9106,3.9105,3.9119,3.9119,3.9119,0,0,3.9195,3.9191,3.9185,3.9181,3.9174,3.9171,3.917,3.9163,3.916,3.9151,3.9149,3.9143,3.913,3.9124,3.9119,3.911,3.9108,3.9108,3.9104,3.9098,3.9097,3.9096,3.9092,3.9091,3.9107,3.9107,3.9107,0,3.9192,3.9183,3.9181,3.9175,3.917,3.917,3.9162,3.9158,3.9149,3.9146,3.9148,3.9132,3.9126,3.9114,3.9112,3.9109,3.9106,3.9108,3.9097,3.9096,3.9096,3.9092,3.909,3.9107,3.9107,3.9107,3.9107,0,3.918,3.9174,3.9169,3.9162,3.9157,3.915,3.9147,3.9142,3.9141,3.9137,3.9127,3.9121,3.9112,3.911,3.9108,3.9097,3.9098,3.9099,3.91,3.9094,3.9091,3.9089,3.9106,3.9107,3.9107,3.9107,0,0,3.917,3.9163,3.9161,3.9157,3.9151,3.9145,3.9138,3.9131,3.9127,3.9121,3.9114,3.9104,3.9104,3.9099,3.9096,3.9091,3.9084,3.9092,3.9092,3.909,3.9071,3.907,3.9069,3.9083,3.9083,3.9082,3.9072,0,3.9161,3.9149,3.9147,3.9137,3.9131,3.913,3.9124,3.9118,3.9115,3.9109,3.9105,3.9097,3.9099,3.9096,3.9091,3.9086,3.908,3.9086,3.9076,3.9075,3.9077,3.9067,3.9066,3.9056,3.907,3.907,3.907,0,3.9148,3.9143,3.9132,3.9126,3.9124,3.9118,3.9111,3.9106,3.9099,3.9097,3.9092,3.909,3.9082,3.9085,3.9073,3.9078,3.9074,3.9071,3.907,3.9068,3.9072,3.9064,3.9053,3.9051,3.9068,3.9068,3.9068,0,3.9141,3.9132,3.9124,3.9121,3.9114,3.911,3.9107,3.9102,3.9097,3.9091,3.9088,3.908,3.9076,3.907,3.9066,3.9068,3.9054,3.9057,3.9051,3.9051,3.9047,3.9047,3.9035,3.9046,3.9046,3.9046,3.9046,0,3.9131,3.9124,3.9121,3.9116,3.9108,3.9106,3.9098,3.9095,3.909,3.9083,3.9082,3.9076,3.9072,3.9065,3.9062,3.9052,3.905,3.9047,3.9046,3.9047,3.9047,3.9043,3.9044,3.9045,3.9045,3.9045,3.9046,0,3.9121,3.9119,3.9111,3.9105,3.9104,3.9098,3.9093,3.9088,3.9085,3.9077,3.9075,3.907,3.9062,3.9058,3.9048,3.9045,3.9034,3.9034,3.9037,3.9036,3.9031,3.9031,3.9014,3.9011,3.9025,3.9025,3.9025,0,3.9114,3.9109,3.9104,3.91,3.9097,3.9091,3.9087,3.9085,3.908,3.9073,3.9069,3.9061,3.9054,3.9041,3.9036,3.9028,3.9027,3.9022,3.9026,3.9027,3.9026,3.9026,3.9025,3.9021,3.9021,3.9021,3.9021,0,3.9102,3.9101,3.9096,3.909,3.9085,3.9081,3.9076,3.9072,3.9069,3.9064,3.9057,3.9052,3.9042,3.9034,3.9025,3.9021,3.902,3.902,3.9018,3.9018,3.9019,3.9018,3.9034,3.902,3.902,3.902,3.902,3.902,3.9093,3.9088,3.9084,3.9078,3.9074,3.907,3.9065,3.9062,3.9056,3.9048,3.9047,3.9039,3.9032,3.9021,3.9017,3.901,3.9011,3.9008,3.9007,3.9007,3.9006,3.9021,3.9008,3.9008,3.9008,3.9008,3.9008,0,3.908,3.9077,3.9072,3.9065,3.906,3.9062,3.9056,3.9052,3.9045,3.904,3.9034,3.9025,3.9017,3.9012,3.9004,3.8999,3.8998,3.8997,3.8997,3.8996,3.9006,3.9008,3.8998,3.8998,3.8998,3.8998,3.8998,3.8998,3.9072,3.9064,3.9063,3.9053,3.905,3.9043,3.904,3.9036,3.9032,3.9022,3.9016,3.9013,3.9008,3.9,3.8992,3.8991,3.8987,3.8986,3.8984,3.8994,3.8995,3.8996,3.8998,3.8986,3.8986,3.8975,3.8975,3.8974]}]]